Weather History for KSGF - September, 2012

Change the Weather History Date:

Wednesday, September 5, 2012

  Actual Average Record
Temperature  
Mean Temperature 83 °F 73 °F  
Max Temperature 93 °F 85 °F 99 °F (1990)
Min Temperature 72 °F 62 °F 47 °F (1974)
Degree Days  
Heating Degree Days 0 0  
Month to date heating degree days 0 0  
Since 1 July heating degree days 0 2  
Cooling Degree Days 18 9  
Month to date cooling degree days 72 47  
Year to date cooling degree days 1662 1233  
Growing Degree Days 33 (Base 50)    
Moisture  
Dew Point 65 °F    
Average Humidity 59    
Maximum Humidity 79    
Minimum Humidity 38    
Precipitation  
Precipitation T in 0.15 in 1.91 in (1926)
Month to date precipitation 0.80 0.76  
Year to date precipitation 20.21 30.87  
Snow  
Snow 0.00 in - - ()
Month to date snowfall 0.0  
Since 1 July snowfall 0.0  
Since 1 September snowfall 0.0  
Snow Depth 0.00 in    
Sea Level Pressure  
Sea Level Pressure 29.82 in    
Wind  
Wind Speed 5 mph (West)    
Max Wind Speed 15 mph    
Max Gust Speed 22 mph    
Visibility 10 miles    
Events Rain    
T = Trace of Precipitation, MM = Missing Value Source: NWS Daily Summary

Daily Weather History Graph

Daily Weather History Graph

Search for Another Location

Airport or City:

Trip Planner

Search our weather history database for the weather conditions in past years. The results will help you decide how hot, cold, wet, or windy it might be!

Date:

Astronomy

Sep. 05, 2012 Rise Set
Actual Time 6:47 AM CDT 7:35 PM CDT
Civil Twilight 6:21 AM CDT 8:02 PM CDT
Nautical Twilight 5:50 AM CDT 8:33 PM CDT
Astronomical Twilight 5:17 AM CDT 9:05 PM CDT
Moon 10:14 PM CDT (9/5) 11:44 AM CDT (9/5)
Length of Visible Light 13h 40m
Length of Day
12h 47m
Waning Gibbous, 76% of the Moon is Illuminated
Sep 5
Waning Gibbous
Sep 8
Last Quarter
Sep 15
New
Sep 22
First Quarter
Sep 29
Full

Hourly Weather History & Observations

Time (CDT) Temp. Heat Index Dew Point Humidity Pressure Visibility Wind Dir Wind Speed Gust Speed Precip Events Conditions
12:52 AM 79.0 °F - 71.1 °F 77% 29.79 in 10.0 mi South 10.4 mph - N/A   Clear
1:52 AM 79.0 °F - 68.0 °F 69% 29.78 in 10.0 mi South 10.4 mph - N/A   Clear
2:52 AM 75.9 °F - 66.9 °F 74% 29.79 in 10.0 mi South 8.1 mph - N/A   Clear
3:52 AM 75.0 °F - 66.0 °F 73% 29.79 in 10.0 mi South 8.1 mph - N/A   Partly Cloudy
4:52 AM 78.1 °F - 64.9 °F 64% 29.81 in 10.0 mi West 11.5 mph - N/A   Scattered Clouds
5:52 AM 75.9 °F - 63.0 °F 64% 29.81 in 10.0 mi Calm Calm - N/A   Clear
6:52 AM 75.0 °F - 64.0 °F 69% 29.84 in 10.0 mi West 9.2 mph - N/A   Clear
7:52 AM 73.0 °F - 66.9 °F 81% 29.80 in 10.0 mi SE 5.8 mph - 0.00 in Rain Light Rain
8:52 AM 77.0 °F - 66.0 °F 69% 29.81 in 10.0 mi Calm Calm - 0.00 in   Clear
9:52 AM 81.0 °F 82.7 °F 64.9 °F 58% 29.82 in 10.0 mi Calm Calm - N/A   Clear
10:52 AM 86.0 °F 87.3 °F 64.0 °F 48% 29.83 in 10.0 mi NW 4.6 mph - N/A   Clear
11:52 AM 87.1 °F 88.9 °F 64.9 °F 48% 29.84 in 10.0 mi NW 9.2 mph - N/A   Clear
12:52 PM 88.0 °F 88.7 °F 63.0 °F 43% 29.83 in 10.0 mi WNW 11.5 mph 17.3 mph N/A   Clear
1:52 PM 90.0 °F 90.6 °F 63.0 °F 40% 29.82 in 10.0 mi WNW 5.8 mph - N/A   Clear
2:52 PM 90.0 °F 90.6 °F 63.0 °F 40% 29.82 in 10.0 mi West 4.6 mph - N/A   Clear
3:52 PM 91.9 °F 92.5 °F 62.1 °F 37% 29.81 in 10.0 mi WNW 4.6 mph - N/A   Clear
4:52 PM 91.9 °F 92.5 °F 62.1 °F 37% 29.80 in 10.0 mi North 6.9 mph - N/A   Clear
5:52 PM 91.0 °F 91.9 °F 63.0 °F 39% 29.80 in 10.0 mi NNW 4.6 mph - N/A   Clear
6:52 PM 89.1 °F 89.3 °F 62.1 °F 40% 29.80 in 10.0 mi West 3.5 mph - N/A   Clear
7:52 PM 82.0 °F 84.1 °F 66.0 °F 58% 29.82 in 10.0 mi Calm Calm - N/A   Clear
8:52 PM 79.0 °F - 66.0 °F 64% 29.84 in 10.0 mi Calm Calm - N/A   Clear
9:52 PM 75.0 °F - 66.0 °F 73% 29.84 in 10.0 mi Calm Calm - N/A   Clear
10:52 PM 75.0 °F - 64.9 °F 71% 29.85 in 10.0 mi South 3.5 mph - N/A   Clear
11:52 PM 73.9 °F - 64.9 °F 73% 29.86 in 10.0 mi SSE 3.5 mph - N/A   Clear